[[{"header":{"parameterUnit":"m.s-1","parameterCategory":1,"la1":30.2991,"la2":30.254,"lo1":-89.0895,"lo2":-89.0444,"dy":0.0017,"dx":0.0017,"nx":28,"ny":28,"refTime":"2025-05-23T03:00:00:Z","depth":0,"parameterNumber":2,"parameterNumberName":"U-component_of_WINDS"},"data":[0,0,0,0,0,0,0,0,0,0,0,0,0,0,0,0,0,0,0,0,0,0,0,0,0,0,0,0,0,0,0,0,0,0,0,0,0,0,0,0,0,0,0,0,0,0,0,0,0,0,0,0,0,0,0,0,0,0,1.378,1.3781,0,1.3862,1.3863,1.3864,1.3863,1.3861,1.386,1.3859,1.3946,1.395,1.3953,0,0,0,0,0,0,0,0,0,0,0,0,0,1.3625,1.3627,1.378,1.3781,1.3782,1.3862,1.3863,1.3864,1.3863,1.3861,1.386,1.3859,1.3945,1.3949,1.3953,0,0,0,0,0,0,0,0,0,0,0,0,0,1.3698,1.3628,1.378,1.3791,1.3793,1.3861,1.3863,1.3864,1.3863,1.3861,1.386,1.3858,1.3944,1.3949,1.3954,1.4018,0,0,1.3969,1.3971,0,0,0,0,0,0,0,0,1.3694,1.3704,1.3788,1.379,1.3792,1.385,1.384,1.3916,1.3863,1.3836,1.3859,1.3857,1.3916,1.3923,1.3942,1.4022,1.4026,1.397,1.3973,1.3975,1.3976,0,0,0,0,0,0,0,1.3689,1.37,1.3812,1.3789,1.3792,1.3792,1.3801,1.3854,1.3885,1.3839,1.3839,1.3848,1.3917,1.3937,1.3944,1.4027,1.3969,1.3974,1.3977,1.3979,1.4162,1.4164,0,0,0,0,0,0,1.3681,1.3696,1.381,1.3815,1.3738,1.3797,1.3806,1.3833,1.3884,1.389,1.385,1.3848,1.393,1.3938,1.3947,1.4024,1.3975,1.3979,1.3982,1.416,1.4162,1.4164,0,0,0,0,0,0,1.3678,1.3691,1.3807,1.3755,1.377,1.3801,1.3832,1.3836,1.3856,1.3892,1.3898,1.3865,1.3929,1.394,1.4,1.4028,1.3982,1.3986,1.4158,1.4161,1.4163,1.418,0,0,0,0,0,0,1.3673,1.369,1.3714,1.3756,1.3773,1.3857,1.3833,1.3839,1.3865,1.3863,1.3908,1.3914,1.3928,1.3992,1.4005,1.4034,1.399,1.4155,1.4159,1.4162,1.4177,1.4183,1.4188,0,0,0,0,0,1.3668,1.3717,1.3715,1.3729,1.3804,1.3859,1.3868,1.3883,1.3867,1.3892,1.3914,1.3913,1.4022,1.3998,1.4012,1.4043,1.4154,1.4158,1.4162,1.4175,1.4182,1.4188,0,0,0,0,0,0,1.3679,1.3722,1.3721,1.3785,1.3818,1.3858,1.389,1.389,1.3929,1.3926,1.3944,1.3954,1.4013,1.4034,1.4007,1.4107,1.4086,1.4093,1.4091,1.4098,1.4103,1.4097,1.3994,0,0,0,0,0,1.3688,1.3729,1.3765,1.3818,1.3834,1.3859,1.3884,1.3892,1.3927,1.3941,1.3968,1.4003,1.4045,1.4073,1.4114,1.418,1.419,1.4208,1.4214,1.4218,1.4224,1.4259,1.4268,1.4178,1.4178,1.4178,0,0,1.3709,1.3738,1.3763,1.3821,1.3847,1.3889,1.3871,1.3916,1.3947,1.3949,1.4005,1.4027,1.4067,1.4129,1.4158,1.4149,1.4251,1.4223,1.4226,1.423,1.4264,1.4273,1.428,1.4181,1.418,1.418,0,0,1.3768,1.3794,1.3841,1.3867,1.3906,1.3922,1.3933,1.3973,1.3987,1.4044,1.4046,1.4083,1.4156,1.4184,1.4208,1.4276,1.4275,1.4289,1.4317,1.4351,1.4358,1.4365,1.4388,1.4396,1.4295,1.4295,1.4295,0,1.379,1.3851,1.3865,1.3909,1.3934,1.3936,1.3983,1.4008,1.406,1.4077,1.4066,1.4156,1.4183,1.4251,1.4268,1.4287,1.43,1.4284,1.4356,1.4363,1.4369,1.4391,1.44,1.4296,1.4296,1.4296,1.4296,0,1.3875,1.3918,1.395,1.3998,1.4027,1.4073,1.4093,1.4121,1.4127,1.4144,1.4202,1.4234,1.4281,1.4298,1.4305,1.4367,1.436,1.4352,1.4331,1.4378,1.4399,1.4408,1.4298,1.4297,1.4297,1.4297,0,0,1.3944,1.3997,1.4009,1.403,1.4073,1.4106,1.4152,1.4196,1.4219,1.4255,1.4293,1.4354,1.4346,1.4373,1.4383,1.4413,1.4463,1.4401,1.4402,1.4411,1.4533,1.4538,1.4547,1.4463,1.4465,1.4466,1.4529,0,1.4007,1.4086,1.4099,1.4169,1.4208,1.4209,1.4249,1.428,1.4297,1.4333,1.4353,1.4395,1.4383,1.4399,1.4428,1.4451,1.4488,1.4446,1.4499,1.4501,1.4488,1.4559,1.4565,1.4622,1.4538,1.4539,1.454,0,1.409,1.4126,1.4199,1.4235,1.4252,1.4288,1.4329,1.4363,1.4398,1.4409,1.4438,1.4443,1.4491,1.4468,1.4533,1.4505,1.4527,1.4541,1.4544,1.4549,1.4523,1.4565,1.4641,1.465,1.4554,1.4552,1.4551,0,1.4132,1.4198,1.425,1.4268,1.4312,1.4337,1.4356,1.439,1.4415,1.4451,1.4468,1.451,1.4532,1.4565,1.4581,1.4564,1.4645,1.4624,1.4655,1.4655,1.4672,1.4671,1.4752,1.4688,1.4688,1.4687,1.4687,0,1.42,1.4245,1.4269,1.4301,1.4351,1.4365,1.4415,1.4434,1.4463,1.4499,1.4504,1.4537,1.4558,1.4594,1.4608,1.4659,1.467,1.468,1.4683,1.4679,1.4677,1.4693,1.4689,1.469,1.4689,1.4689,1.4688,0,1.4255,1.4273,1.4329,1.4366,1.4376,1.4411,1.4442,1.4473,1.449,1.4535,1.4547,1.4573,1.4617,1.4637,1.4691,1.47,1.4758,1.4759,1.4746,1.4747,1.4776,1.4772,1.487,1.4883,1.4811,1.4811,1.4812,0,1.4296,1.433,1.437,1.4393,1.4413,1.4452,1.4477,1.4492,1.4519,1.456,1.4586,1.4629,1.4665,1.4734,1.4759,1.48,1.4801,1.4832,1.4807,1.4802,1.48,1.4797,1.48,1.4837,1.4837,1.4838,1.4838,0,1.4368,1.4375,1.4411,1.445,1.4479,1.4511,1.4542,1.4562,1.4582,1.4611,1.4655,1.4682,1.4736,1.4779,1.4821,1.4842,1.4844,1.4846,1.4855,1.4851,1.4842,1.4846,1.4757,1.4844,1.4843,1.4843,1.4842,1.4842,1.4417,1.4447,1.4479,1.4518,1.4543,1.4571,1.4602,1.4621,1.4658,1.4702,1.4709,1.4755,1.4788,1.4845,1.4868,1.4904,1.4897,1.491,1.4914,1.4916,1.4917,1.4836,1.4912,1.4912,1.4912,1.4912,1.4912,0,1.4488,1.4508,1.4545,1.4587,1.4618,1.4615,1.4649,1.4675,1.4715,1.4746,1.478,1.4829,1.487,1.4897,1.4939,1.4963,1.4964,1.4973,1.4971,1.4976,1.4922,1.491,1.4971,1.4971,1.4971,1.4971,1.4971,1.4971,1.4529,1.4579,1.4589,1.4651,1.4671,1.4715,1.4734,1.4761,1.4784,1.4839,1.4872,1.4889,1.4918,1.4962,1.4999,1.5006,1.5021,1.503,1.5036,1.4986,1.498,1.4974,1.4962,1.5033,1.5033,1.5087,1.5087,1.5087]},{"header":{"parameterUnit":"m.s-1","parameterCategory":1,"la1":30.2991,"la2":30.254,"lo1":-89.0895,"lo2":-89.0444,"dy":0.0017,"dx":0.0017,"nx":28,"ny":28,"refTime":"2025-05-23T03:00:00:Z","depth":0,"parameterNumber":3,"parameterNumberName":"V-component_of_WINDS"},"data":[0,0,0,0,0,0,0,0,0,0,0,0,0,0,0,0,0,0,0,0,0,0,0,0,0,0,0,0,0,0,0,0,0,0,0,0,0,0,0,0,0,0,0,0,0,0,0,0,0,0,0,0,0,0,0,0,0,0,3.6774,3.6775,0,3.6872,3.6873,3.6874,3.6864,3.6862,3.686,3.6859,3.6954,3.6958,3.6961,0,0,0,0,0,0,0,0,0,0,0,0,0,3.6572,3.6576,3.6774,3.6775,3.6777,3.6872,3.6873,3.6875,3.6864,3.6862,3.686,3.6858,3.6952,3.6957,3.6962,0,0,0,0,0,0,0,0,0,0,0,0,0,3.6664,3.6577,3.6774,3.6783,3.6785,3.6872,3.6873,3.6875,3.6864,3.6862,3.686,3.6857,3.6951,3.6957,3.6962,3.7045,0,0,3.6981,3.6983,0,0,0,0,0,0,0,0,3.6658,3.6671,3.678,3.6782,3.6785,3.6853,3.6837,3.6932,3.6865,3.6834,3.6859,3.6856,3.6922,3.693,3.6953,3.705,3.7054,3.6981,3.6985,3.6987,3.6989,0,0,0,0,0,0,0,3.6652,3.6667,3.6813,3.6782,3.6784,3.678,3.679,3.6855,3.6889,3.6836,3.6836,3.6848,3.6922,3.6948,3.6955,3.7055,3.6981,3.6986,3.699,3.6992,3.7224,3.7226,0,0,0,0,0,0,3.6644,3.6661,3.681,3.6816,3.6715,3.6786,3.6797,3.6833,3.6889,3.6895,3.685,3.6847,3.6939,3.6948,3.6959,3.7059,3.6987,3.6993,3.6996,3.7221,3.7224,3.7227,0,0,0,0,0,0,3.664,3.6658,3.6806,3.6739,3.6757,3.6792,3.6832,3.6837,3.6862,3.6899,3.6904,3.6869,3.6937,3.695,3.7024,3.7062,3.6995,3.7001,3.7218,3.7222,3.7226,3.7261,0,0,0,0,0,0,3.6634,3.6656,3.6689,3.6739,3.6761,3.6871,3.6835,3.684,3.6873,3.687,3.6919,3.6925,3.6936,3.7015,3.703,3.7069,3.7005,3.7215,3.722,3.7224,3.7256,3.7265,3.7273,0,0,0,0,0,3.6627,3.6694,3.6691,3.6709,3.6803,3.6874,3.6886,3.6899,3.6876,3.6909,3.6932,3.6923,3.7056,3.7023,3.7039,3.7081,3.7212,3.7218,3.7224,3.7253,3.7264,3.7273,0,0,0,0,0,0,3.6646,3.6701,3.6698,3.6784,3.6824,3.6872,3.6914,3.6911,3.6957,3.6952,3.6966,3.6977,3.7051,3.7073,3.7036,3.7164,3.7131,3.714,3.7147,3.7157,3.7166,3.7158,3.701,0,0,0,0,0,3.666,3.6715,3.6759,3.683,3.6851,3.6879,3.691,3.6917,3.6959,3.6975,3.7004,3.7044,3.7094,3.7127,3.7175,3.7259,3.7269,3.7296,3.7304,3.7311,3.7319,3.7364,3.7376,3.7246,3.7246,3.7246,0,0,3.669,3.6727,3.676,3.6835,3.6867,3.6922,3.6893,3.6952,3.6992,3.6983,3.7056,3.7078,3.7123,3.7202,3.7238,3.7223,3.7357,3.7318,3.7323,3.7328,3.7371,3.7384,3.7394,3.725,3.7249,3.7249,0,0,3.6772,3.6806,3.6869,3.6902,3.6952,3.697,3.6985,3.7033,3.7049,3.7121,3.7116,3.7163,3.725,3.7282,3.7309,3.7403,3.7396,3.7418,3.7462,3.7506,3.7516,3.7525,3.7558,3.757,3.7426,3.7426,3.7426,0,3.6802,3.6886,3.6901,3.6961,3.6994,3.6991,3.7054,3.7084,3.7146,3.7168,3.715,3.7259,3.7289,3.7375,3.7398,3.7421,3.7437,3.7413,3.7514,3.7523,3.7532,3.7563,3.7576,3.7428,3.7428,3.7428,3.7428,0,3.692,3.6978,3.7023,3.7085,3.7123,3.7183,3.7206,3.7242,3.7246,3.7265,3.7339,3.7374,3.743,3.7451,3.7454,3.7538,3.7526,3.7511,3.7478,3.7546,3.7576,3.7588,3.7432,3.7431,3.743,3.743,0,0,3.7016,3.7087,3.7103,3.7132,3.7186,3.723,3.729,3.7347,3.7377,3.7419,3.7469,3.7543,3.7529,3.756,3.7567,3.7606,3.7677,3.7586,3.7587,3.7601,3.777,3.7781,3.7795,3.7673,3.7675,3.7677,3.7766,0,3.7104,3.7213,3.7228,3.7323,3.7376,3.7374,3.7426,3.7464,3.7484,3.753,3.755,3.7603,3.7581,3.76,3.7638,3.7661,3.7711,3.7654,3.7718,3.772,3.7707,3.7811,3.7823,3.7906,3.7778,3.778,3.7782,0,3.722,3.7268,3.737,3.7417,3.744,3.7487,3.7539,3.7584,3.7627,3.7638,3.7673,3.7675,3.7735,3.77,3.7783,3.7743,3.777,3.7785,3.7788,3.7795,3.7755,3.782,3.7932,3.7945,3.78,3.7799,3.7797,0,3.728,3.737,3.7442,3.7466,3.7524,3.7556,3.7581,3.7622,3.7655,3.77,3.7721,3.7772,3.7799,3.7838,3.7853,3.7826,3.7934,3.79,3.7944,3.7943,3.7966,3.7965,3.8085,3.7984,3.7984,3.7983,3.7983,0,3.7376,3.7438,3.747,3.7514,3.7583,3.7599,3.7666,3.7689,3.7725,3.7773,3.7773,3.7817,3.7835,3.7881,3.7893,3.7958,3.7971,3.798,3.7983,3.7981,3.7979,3.7998,3.7992,3.7987,3.7986,3.7985,3.7985,0,3.7454,3.7479,3.7557,3.7605,3.7619,3.7667,3.7707,3.7749,3.7769,3.7828,3.7843,3.7873,3.7927,3.7946,3.8012,3.8019,3.8096,3.8094,3.8082,3.8083,3.8125,3.8121,3.8261,3.828,3.8167,3.8168,3.8169,0,3.7514,3.7562,3.7615,3.7648,3.7675,3.7728,3.7762,3.7779,3.7814,3.7866,3.7901,3.7956,3.8,3.8087,3.8113,3.8163,3.8161,3.8207,3.8168,3.8165,3.8161,3.8158,3.8163,3.8214,3.8215,3.8216,3.8217,0,3.7616,3.7626,3.7676,3.7731,3.7772,3.7815,3.7856,3.7882,3.7905,3.7944,3.8001,3.8036,3.8104,3.8157,3.8208,3.8231,3.8228,3.8229,3.8241,3.8239,3.8231,3.8236,3.8102,3.8225,3.8224,3.8224,3.8223,3.8223,3.7687,3.7729,3.7774,3.783,3.7863,3.7902,3.7944,3.7969,3.8017,3.8075,3.8082,3.8143,3.8183,3.8251,3.8277,3.8324,3.8311,3.8329,3.8334,3.8338,3.8341,3.8224,3.8333,3.8333,3.8332,3.8332,3.8332,0,3.7789,3.7818,3.7869,3.7929,3.7972,3.7967,3.8012,3.8048,3.8102,3.8141,3.8186,3.825,3.8302,3.8333,3.8384,3.8416,3.8415,3.8428,3.8426,3.8431,3.835,3.8334,3.8428,3.8428,3.8428,3.8428,3.8428,3.8428,3.7848,3.7919,3.7934,3.8022,3.8049,3.8111,3.8137,3.8173,3.8204,3.8277,3.8321,3.8341,3.8376,3.843,3.8477,3.8484,3.8503,3.8518,3.8524,3.8447,3.8437,3.8428,3.8413,3.8522,3.8522,3.8601,3.8602,3.8603]}]]